Hourly Data Report for October 11, 2014

All times are specified in Local Standard Time (LST). Add 1 hour to adjust for Daylight Saving Time where and when it is observed.

CHARLOTTETOWN A
PRINCE EDWARD ISLAND

46°17'21.000" N
63°07'09.000" W
48.50 m
8300301
71706
YYG

Download Data

Hourly Data (October 2014)
Hourly Data Report for October 11, 2014
Temp Definition
°C
Dew Point Temp Definition
°C
Rel Hum Definition
%
Wind Dir Definition
10's deg

Wind Spd Definition
km/h
Visibility Definition
km
Stn Press Definition
kPa
Hmdx Definition


Wind Chill Definition


Weather Definition


TIME
00:00 Legend Double Dagger 8.0 6.0 87 26 9 24.1 100.97     LegendNANA
01:00 Legend Double Dagger 8.1 5.9 86 24 8 24.1 101.00     LegendNANA
02:00 Legend Double Dagger 7.6 5.8 88 22 9 24.1 101.03     Mainly Clear
03:00 Legend Double Dagger 7.5 5.7 88 23 9 24.1 101.05     LegendNANA
04:00 Legend Double Dagger 6.9 5.1 88 25 9 24.1 101.09     LegendNANA
05:00 Legend Double Dagger 6.7 4.9 88 23 11 24.1 101.16     Clear
06:00 Legend Double Dagger 6.5 5.0 90 21 13 24.1 101.21     LegendNANA
07:00 Legend Double Dagger 6.4 5.1 91 24 10 24.1 101.29     LegendNANA
08:00 Legend Double Dagger 8.1 5.9 86 26 12 24.1 101.35     Mostly Cloudy
09:00 Legend Double Dagger 9.4 6.7 83 26 9 24.1 101.37     LegendNANA
10:00 Legend Double Dagger 10.4 6.9 79 28 7 24.1 101.38     LegendNANA
11:00 Legend Double Dagger 11.8 6.6 70 24 7 24.1 101.37     Mostly Cloudy
12:00 Legend Double Dagger 11.4 5.5 67 23 12 24.1 101.31     LegendNANA
13:00 Legend Double Dagger 11.1 5.5 68 25 12 24.1 101.27     LegendNANA
14:00 Legend Double Dagger 10.4 5.4 71 23 10 24.1 101.31     Cloudy
15:00 Legend Double Dagger 10.1 5.3 72 24 8 24.1 101.23     LegendNANA
16:00 Legend Double Dagger 10.0 5.8 75 19 7 24.1 101.22     LegendNANA
17:00 Legend Double Dagger 10.2 5.4 72 22 8 24.1 101.16     Mostly Cloudy
18:00 Legend Double Dagger 9.9 5.5 74 23 5 24.1 101.12     LegendNANA
19:00 Legend Double Dagger 9.1 6.4 83 36 2 24.1 101.10     LegendNANA
20:00 Legend Double Dagger 9.7 6.1 78 23 6 24.1 101.10     Cloudy
21:00 Legend Double Dagger 9.2 6.3 82 23 5 24.1 101.05     LegendNANA
22:00 Legend Double Dagger 9.0 6.3 83 24 6 24.1 100.99     LegendNANA
23:00 Legend Double Dagger 8.2 6.0 86 27 7 24.1 100.99     Mostly Cloudy

Notes on Data Quality.

Legend

  • E = Estimated
  • M = Missing
  • NA = Not Available
  • ‡ = Partner data that is not subject to review by the National Climate Archives
Date modified: